Regional Weather Roundup
Issued by NWS Albany, NY

Home | Current Version | Previous Version | Text Only | Print | Product List | Glossary On
Versions: 1 2 3 4 5 6 7 8 9 10 11 12 13 14 15 16 17 18 19 20 21 22 23 24 25 26 27 28 29 30 31 32 33 34 35 36 37 38 39 40 41 42 43 44 45 46 47 48 49 50
000
ASUS41 KALY 040810
RWRALY

NEW YORK STATE HOURLY WEATHER ROUNDUP
NATIONAL WEATHER SERVICE ALBANY NY
400 AM EDT MON MAY 04 2015

NOTE: "FAIR" INDICATES FEW OR NO CLOUDS BELOW 12,000 FEET WITH NO
SIGNIFICANT WEATHER AND/OR NO OBSTRUCTIONS TO VISIBILITY.

NYZ032-033-038>043-046>054-057>066-NYZ062>081-040900-
EAST


CITY           SKY/WX    TMP DP  RH WIND       PRES   REMARKS
ALBANY         PTCLDY    59  40  49 S7        30.13R
GLENS FALLS    CLEAR     46  41  82 CALM      30.13R
POUGHKEEPSIE   CLEAR     49  43  80 CALM      30.15R
MONTGOMERY     CLEAR     46  42  86 CALM      30.15R
WHITE PLAINS   CLEAR     49  45  86 CALM      30.16R
ISLIP          CLEAR     50  47  89 CALM      30.17R
NEW YORK CITY  CLEAR     57  46  66 S5        30.16S
CENTRAL PARK   CLEAR     57  47  69 NE3       30.19R
$$

NYZ005>009-017-018-044>046-055-056-040900-
CENTRAL


CITY           SKY/WX    TMP DP  RH WIND       PRES   REMARKS
FULTON         CLEAR     48  42  80 E3        30.09S
SYRACUSE       MOCLDY    53  42  66 E6        30.09S
ROME           CLEAR     45  39  79 E3        30.13S
ELMIRA         PTCLDY    42  39  89 CALM      30.15R
BINGHAMTON     PTCLDY    55  37  50 SE6       30.14S
MONTICELLO     PTCLDY    46  37  71 N5        30.19R
$$

NYZ026>034-041>043-040900-
NORTH


CITY           SKY/WX    TMP DP  RH WIND       PRES   REMARKS
WATERTOWN      CLEAR     60  38  43 CALM      30.06S
FORT DRUM      NOT AVBL
MASSENA        CLEAR     59  40  49 S9        30.05S
SARANAC LAKE   CLEAR     34  32  92 CALM      30.11R
PLATTSBURGH    PTCLDY    50  41  71 SE5       30.07R
$$

NYZ001>004-010>016-019>021-040900-
WEST


CITY           SKY/WX    TMP DP  RH WIND       PRES   REMARKS
NIAGARA FALLS  PTCLDY    56  39  53 S8        30.06S
BUFFALO        PTCLDY    56  39  53 SE7       30.08S
DUNKIRK        PTCLDY    64  41  42 S13G23    30.09S
JAMESTOWN      PTCLDY    54  37  54 S6        30.15R
WELLSVILLE     PTCLDY    59  34  39 SW5       30.17S
ROCHESTER      PTCLDY    55  41  59 SW7       30.09S
PENN YAN       PTCLDY    55  41  59 SW13      30.12R
$$

             KEY
       WCI = WIND CHILL INDEX
       VSB = VISIBILITY
       HX  = HEAT INDEX
$$


USA.gov is the U.S. government's official web portal to all federal, state and local government web resources and services.